Location: Celina Division
(33.3022°N, 96.7580°W)
Time: 11:52:00
(UTC+00:00)

H-2A R/B (2) - Pass Details

Date: 08 December 2021
Orbit: 446 x 34384 km, 28.7° (Epoch: 22 January)

Event Time Altitude Azimuth Distance (km) Brightness Sun altitude
Exits shadow 12:37:53 - 251° (WSW) 2,893 4.5 -8.6°
Reaches altitude 10° 12:38:54 10° 249° (WSW) 2,474 4.2 -8.4°
Maximum altitude 12:44:02 67° 166° (SSE) 1,809 4.1 -7.4°
Drops below altitude 10° 20:18:28 10° 140° (SE) 30,528 10.4 27.1°
Sets 21:18:47 0° 139° (SE) 22,833 9.6 19.4°
